PREAS SNMA-SNTI

Flight info

Callsign PREAS
Flight time 1h 4m
Altitude 2500
Route 0155S05443W DCT 0203S05520W
Aircraft BE33/L-SBGR/C

Departure

Time 2026-04-28 13:50
Airport Monte Alegre Airport (SNMA)

Arrival

Time 2026-04-28 14:55
Airport Óbidos Municipal Airport (SNTI)
Time Latitude Longitude Altitude Speed Heading
2026-04-28 13:40 -1.99431 -54.06880 241 ft 0 kts 355°
2026-04-28 13:43 -1.99427 -54.06879 241 ft 3 kts 40°
2026-04-28 13:43 -1.99459 -54.06844 240 ft 9 kts 152°
2026-04-28 13:43 -1.99479 -54.06839 239 ft 0 kts 178°
2026-04-28 13:44 -1.99482 -54.06839 239 ft 3 kts 176°
2026-04-28 13:44 -1.99527 -54.06855 240 ft 11 kts 239°
2026-04-28 13:44 -1.99544 -54.06938 245 ft 14 kts 263°
2026-04-28 13:44 -1.99552 -54.07041 251 ft 16 kts 263°
2026-04-28 13:45 -1.99560 -54.07156 257 ft 17 kts 264°
2026-04-28 13:45 -1.99570 -54.07282 263 ft 19 kts 265°
2026-04-28 13:45 -1.99581 -54.07417 270 ft 20 kts 264°
2026-04-28 13:45 -1.99591 -54.07558 277 ft 21 kts 263°
2026-04-28 13:46 -1.99603 -54.07704 284 ft 22 kts 264°
2026-04-28 13:46 -1.99614 -54.07853 293 ft 19 kts 263°
2026-04-28 13:46 -1.99646 -54.07958 294 ft 12 kts 258°
2026-04-28 13:46 -1.99621 -54.07951 294 ft 8 kts 86°
2026-04-28 13:47 -1.99621 -54.07945 293 ft 0 kts 85°
2026-04-28 13:49 -1.99605 -54.07733 285 ft 61 kts 85°
2026-04-28 13:50 -1.99558 -54.07113 369 ft 106 kts 86°
2026-04-28 13:50 -1.99547 -54.06344 796 ft 117 kts 90°
2026-04-28 13:50 -1.99493 -54.05506 1256 ft 119 kts 83°
2026-04-28 13:50 -1.99406 -54.04697 1791 ft 114 kts 84°
2026-04-28 13:51 -1.99324 -54.03932 2348 ft 110 kts 83°
2026-04-28 13:51 -1.99163 -54.03100 2512 ft 138 kts 62°
2026-04-28 13:51 -1.98347 -54.02524 2510 ft 157 kts
2026-04-28 13:51 -1.97280 -54.02777 2510 ft 166 kts 323°
2026-04-28 13:52 -1.96675 -54.03760 2517 ft 173 kts 284°
2026-04-28 13:52 -1.96440 -54.04950 2515 ft 174 kts 280°
2026-04-28 13:52 -1.96235 -54.06122 2525 ft 167 kts 279°
2026-04-28 13:52 -1.96039 -54.07240 2522 ft 160 kts 279°
2026-04-28 13:53 -1.95850 -54.08326 2525 ft 157 kts 279°
2026-04-28 13:53 -1.95662 -54.09390 2519 ft 154 kts 280°
2026-04-28 13:53 -1.95480 -54.10432 2513 ft 151 kts 279°
2026-04-28 13:53 -1.95300 -54.11462 2522 ft 151 kts 280°
2026-04-28 13:54 -1.95119 -54.12498 2519 ft 152 kts 280°
2026-04-28 13:54 -1.94935 -54.13544 2518 ft 153 kts 280°
2026-04-28 13:54 -1.94751 -54.14593 2513 ft 153 kts 279°
2026-04-28 13:54 -1.94571 -54.15620 2517 ft 152 kts 280°
2026-04-28 13:55 -1.94610 -54.16659 2512 ft 151 kts 257°
2026-04-28 13:55 -1.94867 -54.17670 2515 ft 150 kts 256°
2026-04-28 13:55 -1.95127 -54.18686 2510 ft 150 kts 256°
2026-04-28 13:55 -1.95385 -54.19693 2510 ft 149 kts 256°
2026-04-28 13:56 -1.95644 -54.20704 2510 ft 151 kts 256°
2026-04-28 13:56 -1.95904 -54.21713 2515 ft 150 kts 256°
2026-04-28 13:56 -1.96165 -54.22735 2511 ft 151 kts 256°
2026-04-28 13:56 -1.96336 -54.23774 2511 ft 153 kts 268°
2026-04-28 13:57 -1.96345 -54.24845 2512 ft 154 kts 270°
2026-04-28 13:57 -1.96348 -54.25903 2512 ft 151 kts 270°
2026-04-28 13:57 -1.96352 -54.26951 2512 ft 150 kts 270°
2026-04-28 13:57 -1.96355 -54.27993 2512 ft 150 kts 270°
2026-04-28 13:58 -1.96357 -54.29046 2512 ft 152 kts 270°
2026-04-28 13:58 -1.96360 -54.30097 2512 ft 151 kts 270°
2026-04-28 13:58 -1.96363 -54.31140 2511 ft 150 kts 270°
2026-04-28 13:58 -1.96366 -54.32191 2511 ft 151 kts 270°
2026-04-28 13:59 -1.96369 -54.33237 2511 ft 150 kts 270°
2026-04-28 13:59 -1.96372 -54.34285 2511 ft 152 kts 270°
2026-04-28 13:59 -1.96374 -54.35337 2515 ft 151 kts 270°
2026-04-28 13:59 -1.96377 -54.36387 2519 ft 151 kts 270°
2026-04-28 14:00 -1.96379 -54.37438 2517 ft 150 kts 270°
2026-04-28 14:00 -1.96382 -54.38498 2520 ft 154 kts 270°
2026-04-28 14:00 -1.96384 -54.39579 2512 ft 154 kts 270°
2026-04-28 14:00 -1.96386 -54.40638 2514 ft 151 kts 270°
2026-04-28 14:01 -1.96387 -54.41670 2512 ft 150 kts 270°
2026-04-28 14:01 -1.96390 -54.42715 2514 ft 151 kts 270°
2026-04-28 14:01 -1.96393 -54.43762 2521 ft 151 kts 270°
2026-04-28 14:01 -1.96394 -54.44816 2513 ft 151 kts 270°
2026-04-28 14:02 -1.96396 -54.45862 2513 ft 152 kts 270°
2026-04-28 14:02 -1.96398 -54.46914 2512 ft 150 kts 270°
2026-04-28 14:02 -1.96400 -54.47956 2511 ft 149 kts 270°
2026-04-28 14:02 -1.96402 -54.49001 2522 ft 152 kts 270°
2026-04-28 14:03 -1.96404 -54.50066 2521 ft 154 kts 270°
2026-04-28 14:03 -1.96406 -54.51144 2513 ft 155 kts 270°
2026-04-28 14:03 -1.96407 -54.52206 2513 ft 151 kts 270°
2026-04-28 14:03 -1.96409 -54.53257 2516 ft 151 kts 270°
2026-04-28 14:04 -1.96410 -54.54307 2512 ft 151 kts 270°
2026-04-28 14:04 -1.96383 -54.55349 2512 ft 149 kts 276°
2026-04-28 14:04 -1.96197 -54.56372 2512 ft 149 kts 285°
2026-04-28 14:04 -1.95894 -54.57364 2512 ft 149 kts 288°
2026-04-28 14:05 -1.95555 -54.58344 2512 ft 149 kts 289°
2026-04-28 14:05 -1.95213 -54.59326 2511 ft 150 kts 289°
2026-04-28 14:05 -1.94871 -54.60310 2511 ft 150 kts 289°
2026-04-28 14:05 -1.94533 -54.61297 2511 ft 150 kts 287°
2026-04-28 14:06 -1.94235 -54.62282 2511 ft 150 kts 287°
2026-04-28 14:06 -1.93926 -54.63280 2511 ft 150 kts 287°
2026-04-28 14:06 -1.93640 -54.64284 2514 ft 150 kts 285°
2026-04-28 14:06 -1.93365 -54.65297 2513 ft 151 kts 285°
2026-04-28 14:07 -1.93079 -54.66307 2511 ft 150 kts 287°
2026-04-28 14:07 -1.92786 -54.67317 2511 ft 153 kts 285°
2026-04-28 14:07 -1.92508 -54.68336 2517 ft 151 kts 285°
2026-04-28 14:07 -1.92234 -54.69349 2513 ft 151 kts 285°
2026-04-28 14:08 -1.91975 -54.70363 2512 ft 151 kts 284°
2026-04-28 14:08 -1.91826 -54.71387 2510 ft 150 kts 266°
2026-04-28 14:08 -1.91937 -54.72422 2511 ft 150 kts 265°
2026-04-28 14:08 -1.91999 -54.73109 2515 ft 151 kts 265°
2026-04-28 14:09 -1.92127 -54.74524 2512 ft 152 kts 265°
2026-04-28 14:09 -1.92220 -54.75571 2512 ft 150 kts 265°
2026-04-28 14:09 -1.92312 -54.76609 2515 ft 150 kts 265°
2026-04-28 14:09 -1.92436 -54.77642 2512 ft 150 kts 261°
2026-04-28 14:10 -1.92605 -54.78670 2513 ft 150 kts 260°
2026-04-28 14:10 -1.92790 -54.79704 2512 ft 152 kts 260°
2026-04-28 14:10 -1.92976 -54.80743 2511 ft 151 kts 260°
2026-04-28 14:10 -1.93160 -54.81772 2513 ft 151 kts 260°
2026-04-28 14:11 -1.93341 -54.82788 2513 ft 150 kts 260°
2026-04-28 14:11 -1.93525 -54.83817 2513 ft 150 kts 260°
2026-04-28 14:11 -1.93712 -54.84859 2512 ft 150 kts 260°
2026-04-28 14:11 -1.93926 -54.85866 2513 ft 150 kts 257°
2026-04-28 14:12 -1.94160 -54.86880 2512 ft 150 kts 257°
2026-04-28 14:12 -1.94399 -54.87893 2512 ft 150 kts 257°
2026-04-28 14:12 -1.94632 -54.88891 2512 ft 150 kts 257°
2026-04-28 14:12 -1.94867 -54.89911 2494 ft 152 kts 257°
2026-04-28 14:13 -1.95124 -54.90960 2498 ft 159 kts 257°
2026-04-28 14:13 -1.95399 -54.92040 2497 ft 161 kts 256°
2026-04-28 14:13 -1.95665 -54.93129 2501 ft 161 kts 257°
2026-04-28 14:13 -1.95940 -54.94221 2503 ft 163 kts 256°
2026-04-28 14:14 -1.96212 -54.95323 2502 ft 163 kts 257°
2026-04-28 14:14 -1.96482 -54.96417 2502 ft 162 kts 257°
2026-04-28 14:14 -1.96768 -54.97504 2503 ft 162 kts 257°
2026-04-28 14:14 -1.97047 -54.98595 2505 ft 162 kts 257°
2026-04-28 14:15 -1.97314 -54.99694 2502 ft 163 kts 257°
2026-04-28 14:15 -1.97592 -55.00790 2504 ft 162 kts 257°
2026-04-28 14:15 -1.97778 -55.01529 2507 ft 162 kts 257°
2026-04-28 14:15 -1.98040 -55.02625 2506 ft 162 kts 257°
2026-04-28 14:16 -1.98297 -55.03705 2511 ft 162 kts 257°
2026-04-28 14:16 -1.98557 -55.04798 2507 ft 161 kts 257°
2026-04-28 14:16 -1.98815 -55.05895 2508 ft 163 kts 257°
2026-04-28 14:16 -1.99078 -55.07009 2510 ft 165 kts 257°
2026-04-28 14:17 -1.99342 -55.08127 2506 ft 166 kts 257°
2026-04-28 14:17 -1.99607 -55.09252 2506 ft 166 kts 257°
2026-04-28 14:17 -1.99878 -55.10375 2507 ft 167 kts 257°
2026-04-28 14:17 -2.00144 -55.11502 2508 ft 165 kts 257°
2026-04-28 14:18 -2.00402 -55.12614 2512 ft 165 kts 257°
2026-04-28 14:18 -2.00661 -55.13733 2511 ft 165 kts 257°
2026-04-28 14:18 -2.00918 -55.14848 2512 ft 164 kts 257°
2026-04-28 14:18 -2.01180 -55.15964 2515 ft 166 kts 257°
2026-04-28 14:19 -2.01446 -55.17093 2514 ft 167 kts 257°
2026-04-28 14:19 -2.01715 -55.18225 2511 ft 167 kts 257°
2026-04-28 14:19 -2.01978 -55.19351 2511 ft 166 kts 258°
2026-04-28 14:19 -2.02249 -55.20475 2505 ft 165 kts 257°
2026-04-28 14:20 -2.02515 -55.21584 2509 ft 164 kts 257°
2026-04-28 14:20 -2.02783 -55.22690 2502 ft 163 kts 256°
2026-04-28 14:20 -2.03041 -55.23794 2504 ft 164 kts 258°
2026-04-28 14:20 -2.03311 -55.24904 2505 ft 164 kts 257°
2026-04-28 14:21 -2.03576 -55.26008 2509 ft 163 kts 257°
2026-04-28 14:21 -2.03843 -55.27119 2513 ft 166 kts 257°
2026-04-28 14:21 -2.04108 -55.28233 2509 ft 164 kts 257°
2026-04-28 14:21 -2.04372 -55.29340 2509 ft 163 kts 257°
2026-04-28 14:22 -2.04625 -55.30421 2508 ft 162 kts 257°
2026-04-28 14:22 -2.04876 -55.31527 2514 ft 163 kts 257°
2026-04-28 14:22 -2.05088 -55.32647 2512 ft 165 kts 270°
2026-04-28 14:22 -2.04694 -55.33674 2508 ft 158 kts 312°
2026-04-28 14:23 -2.03972 -55.34494 2508 ft 157 kts 315°
2026-04-28 14:23 -2.03238 -55.35305 2509 ft 156 kts 315°
2026-04-28 14:23 -2.02508 -55.36109 2508 ft 156 kts 315°
2026-04-28 14:23 -2.01777 -55.36914 2512 ft 156 kts 315°
2026-04-28 14:24 -2.01041 -55.37717 2508 ft 157 kts 315°
2026-04-28 14:24 -2.00300 -55.38522 2511 ft 158 kts 315°
2026-04-28 14:24 -1.99552 -55.39333 2508 ft 159 kts 315°
2026-04-28 14:24 -1.98798 -55.40147 2510 ft 160 kts 315°
2026-04-28 14:25 -1.98057 -55.40949 2510 ft 158 kts 315°
2026-04-28 14:25 -1.97308 -55.41770 2511 ft 157 kts 315°
2026-04-28 14:25 -1.96573 -55.42580 2427 ft 163 kts 315°
2026-04-28 14:25 -1.95803 -55.43437 2306 ft 166 kts 315°
2026-04-28 14:26 -1.95035 -55.44289 2183 ft 164 kts 315°
2026-04-28 14:26 -1.94270 -55.45129 2061 ft 163 kts 315°
2026-04-28 14:26 -1.93503 -55.45967 1953 ft 166 kts 315°
2026-04-28 14:26 -1.92724 -55.46817 1820 ft 164 kts 315°
2026-04-28 14:27 -1.91952 -55.47654 1699 ft 163 kts 315°
2026-04-28 14:27 -1.91540 -55.48102 1639 ft 162 kts 315°
2026-04-28 14:44 -1.91518 -55.48125 1626 ft 161 kts 316°
2026-04-28 14:44 -1.90927 -55.48836 1478 ft 112 kts 298°
2026-04-28 14:45 -1.90893 -55.49576 1336 ft 121 kts 265°
2026-04-28 14:45 -1.90946 -55.50537 1215 ft 152 kts 267°
2026-04-28 14:45 -1.91023 -55.51667 1119 ft 175 kts 265°
2026-04-28 14:45 -1.91102 -55.52928 1016 ft 182 kts 269°
2026-04-28 14:46 -1.90774 -55.54098 1017 ft 179 kts 308°
2026-04-28 14:46 -1.89764 -55.54748 1015 ft 173 kts 349°
2026-04-28 14:46 -1.88593 -55.54932 1017 ft 170 kts 355°
2026-04-28 14:46 -1.87411 -55.55065 1006 ft 170 kts 356°
2026-04-28 14:47 -1.86340 -55.55189 1006 ft 135 kts 357°
2026-04-28 14:47 -1.85566 -55.55045 1007 ft 100 kts 49°
2026-04-28 14:47 -1.85412 -55.54444 1006 ft 88 kts 87°
2026-04-28 14:47 -1.85387 -55.53823 992 ft 88 kts 86°
2026-04-28 14:48 -1.85494 -55.53262 1000 ft 85 kts 114°
2026-04-28 14:48 -1.85779 -55.52737 1073 ft 92 kts 117°
2026-04-28 14:48 -1.86110 -55.52187 1053 ft 95 kts 118°
2026-04-28 14:48 -1.86448 -55.51622 1045 ft 94 kts 113°
2026-04-28 14:49 -1.86403 -55.50974 992 ft 92 kts 71°
2026-04-28 14:49 -1.86255 -55.50374 983 ft 88 kts 83°
2026-04-28 14:49 -1.86201 -55.49777 968 ft 91 kts 88°
2026-04-28 14:49 -1.86192 -55.49161 1052 ft 88 kts 87°
2026-04-28 14:50 -1.86156 -55.48530 1017 ft 91 kts 87°
2026-04-28 14:50 -1.86106 -55.47902 1000 ft 88 kts 81°
2026-04-28 14:50 -1.85687 -55.47566 1005 ft 89 kts 358°
2026-04-28 14:50 -1.85068 -55.47658 997 ft 88 kts 357°
2026-04-28 14:51 -1.84484 -55.47758 1002 ft 85 kts 340°
2026-04-28 14:51 -1.84249 -55.48268 997 ft 87 kts 259°
2026-04-28 14:51 -1.84336 -55.48867 1008 ft 91 kts 261°
2026-04-28 14:51 -1.84419 -55.49512 1010 ft 95 kts 263°
2026-04-28 14:52 -1.84517 -55.50175 1010 ft 98 kts 261°
2026-04-28 14:52 -1.84592 -55.50852 1011 ft 98 kts 263°
2026-04-28 14:52 -1.84671 -55.51539 1010 ft 103 kts 264°
2026-04-28 14:52 -1.84745 -55.52229 1004 ft 99 kts 263°
2026-04-28 14:53 -1.84821 -55.52901 998 ft 95 kts 261°
2026-04-28 14:53 -1.84917 -55.53528 1003 ft 94 kts 239°
2026-04-28 14:53 -1.85463 -55.53753 999 ft 89 kts 165°
2026-04-28 14:53 -1.86073 -55.53709 1006 ft 90 kts 174°
2026-04-28 14:54 -1.86711 -55.53634 1004 ft 91 kts 170°
2026-04-28 14:54 -1.87163 -55.53330 1007 ft 81 kts 99°
2026-04-28 14:54 -1.87035 -55.52799 727 ft 78 kts 71°
2026-04-28 14:54 -1.86911 -55.52303 416 ft 76 kts 86°
2026-04-28 14:55 -1.86864 -55.51837 322 ft 54 kts 71°
2026-04-28 14:55 -1.86826 -55.51625 317 ft 11 kts 83°
2026-04-28 14:55 -1.86861 -55.51590 317 ft 4 kts 169°
2026-04-28 14:55 -1.86869 -55.51588 317 ft 0 kts 168°
2026-04-28 14:56 -1.86872 -55.51588 317 ft 3 kts 167°
2026-04-28 14:56 -1.86907 -55.51600 317 ft 7 kts 255°
2026-04-28 14:57 -1.86900 -55.51632 318 ft 0 kts 261°